Regional Weather Roundup
Issued by NWS

Home | Current Version | Previous Version | Graphics & Text | Print | Product List | Glossary On
Versions: 1 2 3 4 5 6 7 8 9 10 11 12 13 14 15 16 17 18 19 20 21 22 23 24 25 26 27
000
ASUS45 KBOU 280507
RWRCO

WEATHER ROUNDUP FOR COLORADO
NATIONAL WEATHER SERVICE DENVER/BOULDER CO
1100 PM MDT MON MAR 27 2017

NOTE: "FAIR" INDICATES FEW OR NO CLOUDS BELOW 12000 FEET WITH NO
SIGNIFICANT WEATHER AND/OR OBSTRUCTIONS TO VISIBILITY.

COZ001>005-013-030-031-280600-
...NORTHWEST COLORADO...

CITY           SKY/WX    TMP DP  RH WIND       PRES   REMARKS
CRAIG          MOCLDY    39  32  76 E5        29.85S
HAYDEN         FAIR      37  30  75 E10       29.84F
MEEKER         FAIR      33  29  85 CALM      29.82S
MOUNT WERNER   NOT AVBL
STEAMBOAT SPGS MOCLDY    35  32  90 CALM      29.86F
WALDEN         NOT AVBL
$$

COZ006>008-011-280600-
...WEST CENTRAL VALLEYS...

CITY           SKY/WX    TMP DP  RH WIND       PRES   REMARKS
GRAND JUNCTION RAIN      43  41  93 NW13      29.86R
MONTROSE       LGT RAIN  41  38  89 E14       29.87F
EAGLE          CLOUDY    45  32  61 E5        29.86F
RIFLE          CLOUDY    48  35  60 CALM      29.80S
DELTA          LGT RAIN  46  42  88 NE7       29.87R
NUCLA          LGT RAIN  43  36  75 NE7       29.89S
$$

COZ017>023-064>068-280600-
...SOUTHWEST COLORADO...

CITY           SKY/WX    TMP DP  RH WIND       PRES   REMARKS
DURANGO        CLOUDY    40  38  93 SE3       29.89R
CORTEZ         LGT RAIN  42  39  89 SE8       29.85F
PAGOSA SPRINGS CLOUDY    40  37  89 CALM      29.92F
TELLURIDE      LGT SNOW  32  32 100 CALM      29.92F VSB 3/4
WOLF CREEK PAS SNOW      23  23 100 S25G33    29.99F VSB 1/4 WCI   7
$$

COZ009-010-012-014-032>034-037-058>063-280600-
...CENTRAL COLORADO...

CITY           SKY/WX    TMP DP  RH WIND       PRES   REMARKS
ASPEN          CLOUDY    38  29  70 S3        29.85S
BUENA VISTA    MOCLDY    40  30  67 S3        29.87F
COPPER MTN     FAIR      28  23  80 MISG      29.96F
BERTHOUD PASS  HAZE      21  10  63 S7        29.98F VSB 3/4 WCI  13
COTTONWOOD PAS LGT SNOW  36  32  87 CALM      29.92F
GUNNISON       FAIR      41  30  65 SW5       29.87R
KREMMLING      CLOUDY    43  36  75 CALM      29.90S
LEADVILLE      MOCLDY    29  21  72 CALM      29.89F
MONARCH PASS   MOCLDY    27  23  86 S15G22    30.07F WCI  15
SALIDA         CLOUDY    48  31  52 N3        29.95R
SUNLIGHT       CLOUDY    28  23  80 SW7G16    29.97R WCI  21
WILKERSON PASS MOCLDY    28  28 100 SW8       29.99F WCI  20
$$

COZ069>075-280600-
...SAN LUIS VALLEY/SANGRE DE CRISTO MOUNTAINS...

CITY           SKY/WX    TMP DP  RH WIND       PRES   REMARKS
ALAMOSA        MOCLDY    40  34  79 S14       29.89F
LA VETA PASS   NOT AVBL
SAGUACHE       CLOUDY    41  32  70 SE9       29.91S
$$

COZ035-036-038>040-280600-
...NORTHERN COLORADO FRONT RANGE...

CITY           SKY/WX    TMP DP  RH WIND       PRES   REMARKS
DENVER INTL AP MOCLDY    46  37  71 CALM      29.81F
DMNS CITY PARK   N/A     46  43  88 NW2       29.82S
AURORA         MOCLDY    46  42  88 NW8       29.83S
FRONT RANGE AP NOT AVBL
ERIE MUNI ARPT CLOUDY    48  45  87 CALM      29.83R
BOULDER MUN AP LGT RAIN  46  43  87 NW7       29.83S
CENTENNIAL     MOCLDY    46  38  73 W7        29.83F
BROOMFIELD     NOT AVBL
FORT COLLINS   FAIR      49  42  77 NE6       29.84F
LONGMONT       RAIN      51  42  71 SW5       29.85S
$$

COZ041-046-047-076>085-087-088-280600-
...PIKES PEAK/PALMER DIVIDE AND SOUTHERN FOOTHILLS...

CITY           SKY/WX    TMP DP  RH WIND       PRES   REMARKS
COLO. SPRINGS  CLOUDY    46  40  79 SE8       29.87S
A. F. ACADEMY  NOT AVBL
SCHRIEVER AFB  MOCLDY    45  40  83 SE10      29.87F
ELLICOTT       NOT AVBL
FALCON         CLOUDY    43  39  86 S14       29.89S
FORT CARSON    CLOUDY    47  42  82 S5        29.85F
LIMON          LGT RAIN  46  40  79 S23G35    29.85F
MONUMENT HILL  FAIR      41  36  81 S16       29.87F
TRINIDAD       MOCLDY    49  39  68 N7        29.83F
$$

COZ042>045-048>051-090-091-280600-
...NORTHEAST COLORADO...

CITY           SKY/WX    TMP DP  RH WIND       PRES   REMARKS
GREELEY ARPT   LGT RAIN  49  43  80 N10       29.85S
AKRON          FAIR      49  36  61 SE22G32   29.84F
BURLINGTON     FAIR      48  38  68 SE16      29.88S
WRAY           CLOUDY    52  37  58 SE17G24   29.89S
STERLING       CLOUDY    54  37  54 S12G23    29.84S
HOLYOKE        FAIR      54  41  62 SE16      29.88F
FORT MORGAN    CLOUDY    51  35  53 SE10      29.85R
$$

COZ086-089-092>099-280600-
...SOUTHEAST COLORADO...

CITY           SKY/WX    TMP DP  RH WIND       PRES   REMARKS
PUEBLO         CLOUDY    50  46  86 E14       29.81F
LA JUNTA       MOCLDY    56  43  61 E7        29.83F
LAMAR          CLOUDY    55  32  41 SE22G28   29.82S
SPRINGFIELD      N/A     50  36  58 SE12      29.85F
$$




USA.gov is the U.S. government's official web portal to all federal, state and local government web resources and services.